Regional Weather Roundup
Issued by NWS

Home | Current Version | Previous Version | Text Only | Print | Product List | Glossary Off
Versions: 1 2 3 4 5 6 7 8 9 10 11 12 13 14 15 16 17 18 19 20 21 22 23 24 25 26 27 28 29 30 31 32 33 34 35 36 37 38 39 40 41 42 43 44 45 46 47 48 49 50

000
ASUS43 KIND 041759
RWRIN

WEATHER ROUNDUP FOR INDIANA
NATIONAL WEATHER SERVICE INDIANAPOLIS IN
100 PM EST WED MAR 04 2015

NOTE: "FAIR" INDICATES FEW OR NO CLOUDS BELOW 12,000 FEET WITH NO
SIGNIFICANT WEATHER AND/OR OBSTRUCTIONS TO VISIBILITY.

* - STATION DOES NOT REPORT WEATHER SUCH AS PRECIPITATION OR FOG.

+ - STATION NOT QUALITY CONTROLLED BY THE NATIONAL WEATHER SERVICE.
    USE DATA WITH CAUTION...ESPECIALLY DEWPOINT AND RELATIVE
    HUMIDITY OBSERVATIONS.

INZ001>003-010>013-019-020-041900-
NORTHWEST INDIANA

CITY           SKY/WX    TMP DP  RH WIND       PRES   REMARKS
GARY /AIRPORT/ CLOUDY    25   9  50 NW12      30.13R WCI  14
MONTICELLO +   CLOUDY    23  17  80 W13       30.11R WCI  11
6HR MIN TEMP:  22; 6HR MAX TEMP:  29;

VALPARAISO     CLOUDY    23  13  65 NW9       30.09S WCI  13

$$

LMZ046-743>745-041900-
SOUTHERN LAKE MICHIGAN

STATION/POSITION TIME  TEMP WIND        PRES
                       AIR  DIR/SP/G
                 (UTC) (F)  (DEG/KT/KT) (MB)
MICHIGAN CITY    1700   22  290/ 14/ 16   N/A

$$

INZ004-005-014>016-021>024-041900-
NORTH CENTRAL INDIANA

CITY           SKY/WX    TMP DP  RH WIND       PRES   REMARKS
GOSHEN         CLOUDY    26  19  74 NW14      30.04R WCI  14
6HR MIN TEMP:  26; 6HR MAX TEMP:  30;

SOUTH BEND     CLOUDY    25  14  63 NW17G23   30.08R WCI  12
6HR MIN TEMP:  24; 6HR MAX TEMP:  30;


$$

INZ006>009-017-018-025>027-041900-
NORTHEAST INDIANA

CITY           SKY/WX    TMP DP  RH WIND       PRES   REMARKS
ANGOLA *+      PTSUNNY   28  18  64 NW14      30.00R WCI  17
FORT WAYNE     CLOUDY    32  22  66 NW13      30.03R WCI  22
6HR MIN TEMP:  27; 6HR MAX TEMP:  33;


$$

INZ028-029-035-036-043>045-051>053-041900-
WEST CENTRAL INDIANA

CITY           SKY/WX    TMP DP  RH WIND       PRES   REMARKS
CRAWFORDSVL +  CLOUDY    21  11  66 NW12      30.11R WCI   9
6HR MIN TEMP:  21; 6HR MAX TEMP:  29;

GREENCASTLE +  CLOUDY    28  18  64 NW6       30.10R WCI  22
LAFAYETTE      CLOUDY    20  14  77 W14       30.13R WCI   7
6HR MIN TEMP:  20; 6HR MAX TEMP:  29;

TERRE HAUTE    CLOUDY    21  14  74 NW9G18    30.14R WCI  11
6HR MIN TEMP:  21; 6HR MAX TEMP:  33;


$$

INZ030>032-037>040-046>048-054>057-064-065-041900-
CENTRAL INDIANA

CITY           SKY/WX    TMP DP  RH WIND       PRES   REMARKS
GREENWOOD *+   CLOUDY    30  21  69 NW10      30.08R WCI  21
INDIANAPOLIS   CLOUDY    29  22  75 NW15      30.07R WCI  18
6HR MIN TEMP:  29; 6HR MAX TEMP:  32;

-EAGLE CREEK   CLOUDY    26  21  81 NW14      30.08R WCI  14
6HR MIN TEMP:  26; 6HR MAX TEMP:  31;

KOKOMO *+        N/A    N/A N/A N/A MISG        N/A
MT COMFORT *+  CLOUDY    32  19  59 NW12      30.07R WCI  23
SHELBYVILLE    CLOUDY    34  27  75 NW13      30.05R HAZE    WCI  25
6HR MIN TEMP:  34; 6HR MAX TEMP:  35;


$$

INZ033-034-041-042-049-050-058-059-041900-
EAST CENTRAL INDIANA

CITY           SKY/WX    TMP DP  RH WIND       PRES   REMARKS
MUNCIE         CLOUDY    32  25  75 W12       30.03R HAZE    WCI  23
6HR MIN TEMP:  31; 6HR MAX TEMP:  32;


$$

INZ060-061-067>069-081>083-085>088-041900-
SOUTHWEST INDIANA

CITY           SKY/WX    TMP DP  RH WIND       PRES   REMARKS
EVANSVILLE     LGT SNOW  30  26  85 N12G22    30.12S FOG     WCI  20
6HR MIN TEMP:  30; 6HR MAX TEMP:  36; 6HR PCP:  0.27;

HUNTINGBURG *+   N/A     30  27  86 NW12G17   30.09F VSB 3/4 WCI  21
6HR MIN TEMP:  30; 6HR MAX TEMP:  36; 6HR PCP:  0.02;


$$

INZ062-063-066-070>080-084-089>092-041900-
SOUTH CENTRAL AND SOUTHEAST INDIANA

CITY           SKY/WX    TMP DP  RH WIND       PRES   REMARKS
BLOOMINGTON    CLOUDY    31  27  85 VRB5      30.09R FOG     WCI  26
6HR MIN TEMP:  31; 6HR MAX TEMP:  34; 6HR PCP: TRACE;

SEYMOUR +      CLOUDY    36  28  75 N8        30.06S

$$



USA.gov is the U.S. government's official web portal to all federal, state and local government web resources and services.